Date String (YYYY-MM-DD hh:mm:ss) UTC,Instrument flags,Ambient pressure (hPa),Sample flow (lpm),Bypass flow (lpm),Sample temperature (°C),Ambient temperature (°C),ASC tube jacket temperature (°C),LED temperature (°C),Box temperature (°C),Sample RH (%),Span deviation,Mass concentration (μg/m³),Mass concentration (μg/m³),Mass concentration (μg/m³)
DateTimeUTC,F1_M11,P_M11,Q1_M11,Q2_M11,T1_M11,T2_M11,T3_M11,T4_M11,T5_M11,U1_M11,ZSPAN_M11,X0_M11,X2_M11,X1_M11
2021-11-11 00:00:00,,0824.9,5.01,0.00,25.6,24.6,00.0,34.8,27.3,08.6,0000.0,0004.12,0002.85,0002.22
2021-11-11 00:01:00,,0824.9,5.00,0.00,25.6,24.6,00.0,34.8,27.3,08.6,0000.0,0004.10,0002.84,0002.23
2021-11-11 00:02:00,,0825.0,4.99,0.00,25.6,24.6,00.0,34.8,27.3,08.7,0000.0,0004.22,0002.88,0002.25
2021-11-11 00:03:00,,0824.9,5.02,0.00,25.6,24.5,00.0,34.8,27.2,08.7,0000.0,0004.20,0002.87,0002.27
2021-11-11 00:04:00,,0825.0,4.99,0.00,25.6,24.5,00.0,34.7,27.2,08.8,0000.0,0004.12,0002.83,0002.26
2021-11-11 00:05:00,,0825.0,4.99,0.00,25.5,24.5,00.0,34.7,27.1,08.8,0000.0,0004.15,0002.84,0002.27
2021-11-11 00:06:00,,0825.0,5.00,0.00,25.5,24.4,00.0,34.7,27.1,08.8,0000.0,0004.17,0002.82,0002.28
2021-11-11 00:07:00,,0825.1,5.01,0.00,25.5,24.4,00.0,34.7,27.1,08.8,0000.0,0004.08,0002.82,0002.30
2021-11-11 00:08:00,,0825.1,4.99,0.00,25.5,24.4,00.0,34.7,27.1,08.8,0000.0,0004.16,0002.84,0002.32
2021-11-11 00:09:00,,0825.2,5.00,0.00,25.5,24.4,00.0,34.7,27.1,08.8,0000.0,0004.67,0002.89,0002.32
2021-11-11 00:10:00,,0825.1,4.99,0.00,25.5,24.4,00.0,34.7,27.1,08.8,0000.0,0004.86,0002.93,0002.32
2021-11-11 00:11:00,,0825.2,5.00,0.00,25.5,24.4,00.0,34.7,27.1,08.8,0000.0,0004.88,0002.93,0002.32
2021-11-11 00:12:00,,0825.2,5.00,0.00,25.5,24.4,00.0,34.7,27.1,08.8,0000.0,0004.99,0002.98,0002.33
2021-11-11 00:13:00,,0825.3,5.00,0.00,25.5,24.4,00.0,34.6,27.1,08.8,0000.0,0005.09,0003.04,0002.32
2021-11-11 00:14:00,,0825.3,5.00,0.00,25.5,24.4,00.0,34.6,27.1,08.8,0000.0,0004.96,0003.01,0002.32
2021-11-11 00:15:00,,0825.4,5.01,0.00,25.5,24.4,00.0,34.6,27.1,08.8,0000.0,0005.05,0003.06,0002.32
2021-11-11 00:16:00,,0825.3,4.99,0.00,25.5,24.4,00.0,34.6,27.2,08.9,0000.0,0005.25,0003.13,0002.30
2021-11-11 00:17:00,,0825.4,5.01,0.00,25.5,24.4,00.0,34.6,27.2,08.9,0000.0,0005.17,0003.13,0002.29
2021-11-11 00:18:00,,0825.3,5.00,0.00,25.5,24.5,00.0,34.6,27.2,08.9,0000.0,0005.16,0003.12,0002.27
2021-11-11 00:19:00,,0825.3,5.00,0.00,25.5,24.5,00.0,34.6,27.2,09.0,0000.0,0005.42,0003.09,0002.25
2021-11-11 00:20:00,,0825.4,5.00,0.00,25.5,24.5,00.0,34.6,27.3,09.0,0000.0,0006.72,0003.00,0002.23
2021-11-11 00:21:00,,0825.4,4.99,0.00,25.5,24.6,00.0,34.6,27.3,09.0,0000.0,0006.71,0002.94,0002.22
2021-11-11 00:22:00,,0825.4,5.00,0.00,25.6,24.6,00.0,34.6,27.2,09.0,0000.0,0006.89,0002.97,0002.22
2021-11-11 00:23:00,,0825.2,5.01,0.00,25.6,24.6,00.0,34.6,27.2,08.7,0000.0,0006.72,0002.93,0002.23
2021-11-11 00:24:00,,0825.3,5.00,0.00,25.5,24.6,00.0,34.6,27.3,08.6,0000.0,0006.58,0002.89,0002.26
2021-11-11 00:25:00,,0825.2,5.00,0.00,25.5,24.6,00.0,34.6,27.3,08.6,0000.0,0006.66,0002.94,0002.32
2021-11-11 00:26:00,,0825.3,5.00,0.00,25.5,24.5,00.0,34.6,27.3,08.7,0000.0,0006.78,0002.99,0002.37
2021-11-11 00:27:00,,0825.3,5.01,0.00,25.4,24.4,00.0,34.6,27.1,08.8,0000.0,0006.70,0002.95,0002.41
2021-11-11 00:28:00,,0825.3,5.01,0.00,25.4,24.3,00.0,34.6,27.0,08.7,0000.0,0006.72,0003.01,0002.45
2021-11-11 00:29:00,,0825.2,5.00,0.00,25.4,24.2,00.0,34.6,27.0,08.7,0000.0,0006.85,0003.10,0002.50
2021-11-11 00:30:00,,0825.3,5.00,0.00,25.4,24.2,00.0,34.6,27.0,08.7,0000.0,0006.80,0003.13,0002.54
2021-11-11 00:31:00,,0825.3,5.01,0.00,25.4,24.2,00.0,34.5,27.0,09.0,0000.0,0005.43,0003.19,0002.58
2021-11-11 00:32:00,,0825.3,4.99,0.00,25.4,24.2,00.0,34.5,27.0,08.6,0000.0,0005.36,0003.25,0002.61
2021-11-11 00:33:00,,0825.2,5.01,0.00,25.4,24.2,00.0,34.5,27.0,08.4,0000.0,0006.10,0003.27,0002.65
2021-11-11 00:34:00,,0825.3,4.99,0.00,25.3,24.2,00.0,34.5,27.0,08.2,0000.0,0006.35,0003.33,0002.72
2021-11-11 00:35:00,,0825.3,5.00,0.00,25.3,24.2,00.0,34.5,27.0,08.3,0000.0,0006.58,0003.39,0002.78
2021-11-11 00:36:00,,0825.3,5.00,0.00,25.3,24.3,00.0,34.5,27.0,08.2,0000.0,0006.74,0003.43,0002.81
2021-11-11 00:37:00,,0825.2,5.01,0.00,25.3,24.3,00.0,34.5,27.1,08.2,0000.0,0006.83,0003.45,0002.83
2021-11-11 00:38:00,,0825.3,5.00,0.00,25.3,24.2,00.0,34.5,27.1,08.2,0000.0,0007.06,0003.51,0002.89
2021-11-11 00:39:00,,0825.3,5.00,0.00,25.3,24.2,00.0,34.4,27.0,08.2,0000.0,0007.86,0003.51,0002.91
2021-11-11 00:40:00,,0825.3,5.00,0.00,25.2,24.2,00.0,34.4,26.9,08.3,0000.0,0008.24,0003.51,0002.93
2021-11-11 00:41:00,,0825.3,5.00,0.00,25.2,24.1,00.0,34.4,26.8,08.3,0000.0,0008.20,0003.50,0002.96
2021-11-11 00:42:00,,0825.2,5.00,0.00,25.2,24.1,00.0,34.4,26.8,08.3,0000.0,0008.17,0003.51,0003.01
2021-11-11 00:43:00,,0825.2,4.99,0.00,25.2,24.1,00.0,34.4,26.9,08.3,0000.0,0008.01,0003.52,0003.07
2021-11-11 00:44:00,,0825.3,5.00,0.00,25.2,24.0,00.0,34.4,26.8,08.3,0000.0,0007.60,0003.58,0003.09
2021-11-11 00:45:00,,0825.3,4.99,0.00,25.2,24.0,00.0,34.3,26.7,08.3,0000.0,0007.70,0003.61,0003.11
2021-11-11 00:46:00,,0825.3,5.01,0.00,25.2,24.0,00.0,34.3,26.7,08.4,0000.0,0007.78,0003.64,0003.09
2021-11-11 00:47:00,,0825.3,5.01,0.00,25.1,23.9,00.0,34.3,26.7,08.4,0000.0,0007.83,0003.66,0003.08
2021-11-11 00:48:00,,0825.3,5.00,0.00,25.1,23.9,00.0,34.3,26.7,08.4,0000.0,0007.91,0003.69,0003.10
2021-11-11 00:49:00,,0825.4,4.99,0.00,25.1,23.9,00.0,34.3,26.7,08.3,0000.0,0007.95,0003.71,0003.10
2021-11-11 00:50:00,,0825.3,5.01,0.00,25.1,23.9,00.0,34.3,26.7,08.4,0000.0,0007.21,0003.74,0003.12
2021-11-11 00:51:00,,0825.2,4.99,0.00,25.1,23.9,00.0,34.3,26.7,08.4,0000.0,0006.74,0003.76,0003.12
2021-11-11 00:52:00,,0825.3,5.00,0.00,25.1,23.9,00.0,34.3,26.7,08.3,0000.0,0006.76,0003.78,0003.14
2021-11-11 00:53:00,,0825.4,5.01,0.00,25.0,23.9,00.0,34.2,26.6,08.3,0000.0,0006.89,0003.78,0003.15
2021-11-11 00:54:00,,0825.3,5.01,0.00,25.0,23.9,00.0,34.2,26.7,08.4,0000.0,0007.35,0003.81,0003.15
2021-11-11 00:55:00,,0825.3,5.00,0.00,25.0,23.9,00.0,34.2,26.6,08.4,0000.0,0007.49,0003.82,0003.16
2021-11-11 00:56:00,,0825.3,5.00,0.00,25.0,23.9,00.0,34.2,26.7,08.3,0000.0,0007.47,0003.81,0003.16
2021-11-11 00:57:00,,0825.4,5.00,0.00,25.0,23.9,00.0,34.2,26.7,08.2,0000.0,0007.87,0003.77,0003.16
2021-11-11 00:58:00,,0825.3,4.99,0.00,25.0,24.0,00.0,34.2,26.6,08.3,0000.0,0008.35,0003.75,0003.17
2021-11-11 00:59:00,,0825.4,5.01,0.00,25.0,23.9,00.0,34.2,26.6,08.3,0000.0,0008.46,0003.70,0003.18
